Regional Weather Roundup
Issued by NWS

Home | Current Version | Previous Version | Text Only | Print | Product List | Glossary Off
Versions: 1 2 3 4 5 6 7 8 9 10 11 12 13 14 15 16 17 18 19 20 21 22 23 24 25 26 27 28 29 30 31 32 33 34 35 36 37 38 39 40 41 42 43 44 45 46 47 48 49 50

000
ASUS43 KIND 291459
RWRIN

WEATHER ROUNDUP FOR INDIANA
NATIONAL WEATHER SERVICE INDIANAPOLIS IN
1100 AM EDT SAT APR 29 2017

NOTE: "FAIR" INDICATES FEW OR NO CLOUDS BELOW 12,000 FEET WITH NO
SIGNIFICANT WEATHER AND/OR OBSTRUCTIONS TO VISIBILITY.

* - STATION DOES NOT REPORT WEATHER SUCH AS PRECIPITATION OR FOG.

+ - STATION NOT QUALITY CONTROLLED BY THE NATIONAL WEATHER SERVICE.
    USE DATA WITH CAUTION...ESPECIALLY DEWPOINT AND RELATIVE
    HUMIDITY OBSERVATIONS.

INZ001>003-010>013-019-020-291600-
NORTHWEST INDIANA

CITY           SKY/WX    TMP DP  RH WIND       PRES   REMARKS
GARY /AIRPORT/ CLOUDY    46  37  71 N17G35    30.13F
MONTICELLO +   LGT RAIN  51  50  95 NE8       30.07R
RENSSELAER +   CLOUDY    50  45  81 NE15      30.07F

$$

LMZ046-743>745-291600-
SOUTHERN LAKE MICHIGAN

STATION/POSITION TIME  TEMP    WIND        PRES    WAVE
                       AIR SEA DIR/SP/G            HT
                 (UTC) (F)     (DEG/KT/KT) (MB)    (FT)
BURNS HARBOR     1440   44      20/ 22/ 26 1020.0R
MICHIGAN CITY    1430   44     360/ 25/ 27   N/A
5NW MICH CITY    1450   43 46                N/A     5

$$

INZ004-005-014>016-021>024-291600-
NORTH CENTRAL INDIANA

CITY           SKY/WX    TMP DP  RH WIND       PRES   REMARKS
ELKHART        MOSUNNY   52  41  66 NE10      30.11R
GOSHEN         CLOUDY    52  42  69 E12       30.11R
SOUTH BEND     CLOUDY    51  44  77 NE9       30.11S

$$

INZ006>009-017-018-025>027-291600-
NORTHEAST INDIANA

CITY           SKY/WX    TMP DP  RH WIND       PRES   REMARKS
ANGOLA *+      CLOUDY    48  36  61 E7        30.12R
FORT WAYNE     CLOUDY    54  51  90 NE13      30.10F
KENDALLVILLE + CLOUDY    49  44  80 NE10      30.12R

$$

INZ028-029-035-036-043>045-051>053-291600-
WEST CENTRAL INDIANA

CITY           SKY/WX    TMP DP  RH WIND       PRES   REMARKS
CRAWFORDSVL +  RAIN      53  53 100 E6        30.08R
GREENCASTLE +  RAIN      55  55 100 NE8       30.09R
LAFAYETTE      RAIN      52  51  97 E9        30.07R FOG
TERRE HAUTE    LGT RAIN  58  56  93 E8        30.03F

$$

INZ030>032-037>040-046>048-054>057-064-065-291600-
CENTRAL INDIANA

CITY           SKY/WX    TMP DP  RH WIND       PRES   REMARKS
COLUMBUS       LGT RAIN  63  61  94 S7        30.09R FOG
INDIANAPOLIS   TSTM      58  57  97 N8        30.09R FOG
-EAGLE CREEK   HVY RAIN  57  55  93 CALM      30.09R FOG
KOKOMO +       RAIN      54  53  97 NE13      30.09R FOG
SHELBYVILLE    RAIN      63  60  90 SW12      30.10R FOG

$$

INZ033-034-041-042-049-050-058-059-291600-
EAST CENTRAL INDIANA

CITY           SKY/WX    TMP DP  RH WIND       PRES   REMARKS
MUNCIE         RAIN      58  56  93 CALM      30.11R FOG
RICHMOND +     RAIN      59  59 100 S17       30.15R

$$

INZ060-061-067>069-081>083-085>088-291600-
SOUTHWEST INDIANA

CITY           SKY/WX    TMP DP  RH WIND       PRES   REMARKS
EVANSVILLE     CLOUDY    67  63  87 E7        30.01F

$$

INZ062-063-066-070>080-084-089>092-291600-
SOUTH CENTRAL AND SOUTHEAST INDIANA

CITY           SKY/WX    TMP DP  RH WIND       PRES   REMARKS
BLOOMINGTON    LGT RAIN  64  62  93 SE10      30.03F
MADISON *+     CLOUDY    64  63  94 E3        30.12R
SEYMOUR +      RAIN     N/A N/A N/A S3        30.08R

$$




USA.gov is the U.S. government's official web portal to all federal, state and local government web resources and services.